1513328400.23,60919,3.88,71608.5,-4.21,-7.35,-7.83,0,*5D
1513328401.46,60920,3.94,71610.8,-4.21,-7.69,-8.17,0,*5C
1513328402.71,60921,3.94,71608.5,-4.23,-7.77,-8.21,0,*55
1513328403.97,60922,3.88,71612.8,-4.23,-8.07,-8.45,0,*5C
1513328405.19,60923,3.94,71620.3,-4.23,-8.17,-8.41,0,*58
1513328406.45,60924,3.88,71630.5,-4.25,-7.57,-7.57,0,*5A
1513328407.73,60925,3.94,71640.0,-4.27,-7.57,-7.69,0,*54
1513328408.97,60926,3.94,71624.0,-4.25,-7.53,-7.43,0,*59
1513328410.19,60927,3.94,71616.5,-4.25,-7.27,-7.19,0,*54
1513328411.45,60928,3.94,71594.5,-4.25,-6.93,-6.93,0,*56
1513328412.71,60929,3.94,71588.0,-4.27,-7.73,-7.83,0,*5A
1513328413.96,60930,3.94,71602.0,-4.27,-7.99,-8.21,0,*51
1513328415.19,60931,3.94,71598.8,-4.27,-8.55,-8.67,0,*5D
1513328416.41,60932,3.94,71606.3,-4.27,-8.63,-8.67,0,*5B
1513328417.62,60933,3.94,71632.3,-4.33,-8.71,-8.97,0,*53
1513328418.83,60934,3.88,71626.0,-4.33,-8.37,-8.37,0,*5C
1513328420.05,60935,3.94,71628.5,-4.33,-7.87,-7.91,0,*5A
1513328421.31,60936,3.94,71628.8,-4.33,-7.99,-7.99,0,*5E
1513328422.59,60937,3.94,71632.0,-4.35,-7.73,-7.77,0,*5D
1513328423.86,60938,3.94,71614.8,-4.35,-7.95,-7.95,0,*56
1513328425.1,60939,3.94,71622.3,-4.37,-7.91,-7.95,0,*51
1513328426.31,60940,3.94,71624.8,-4.37,-7.35,-7.23,0,*5C
1513328427.53,60941,3.94,71616.5,-4.37,-7.01,-6.89,0,*5B
1513328428.75,60942,3.94,71618.0,-4.37,-7.23,-7.27,0,*5D
1513328429.98,60943,3.94,71608.8,-4.35,-7.23,-7.23,0,*5A
1513328431.17,60944,3.94,71610.3,-4.37,-6.85,-6.81,0,*5B
1513328432.4,60945,3.94,71616.0,-4.35,-6.73,-6.59,0,*54
1513328433.59,60946,3.94,71612.3,-4.37,-6.81,-6.69,0,*5B
1513328434.82,60947,3.94,71616.3,-4.35,-6.89,-6.81,0,*56
1513328436.06,60948,3.94,71618.3,-4.35,-6.81,-6.81,0,*51
1513328437.29,60949,3.94,71618.0,-4.35,-6.55,-6.43,0,*57
1513328438.51,60950,3.94,71616.8,-4.33,-6.27,-6.13,0,*59
1513328439.74,60951,3.94,71620.0,-4.33,-6.19,-6.13,0,*55
1513328440.95,60952,3.94,71620.3,-4.29,-6.43,-6.39,0,*5A
1513328442.15,60953,3.94,71628.3,-4.29,-6.43,-6.39,0,*5B
1513328443.38,60954,3.94,71624.3,-4.27,-6.39,-6.35,0,*53
1513328444.58,60955,3.94,71630.5,-4.25,-6.47,-6.35,0,*59
1513328445.81,60956,3.94,71632.8,-4.27,-6.51,-6.39,0,*53
1513328447.04,60957,3.94,71632.5,-4.27,-6.77,-6.73,0,*58
1513328448.28,60958,3.94,71632.3,-4.27,-6.89,-6.81,0,*5B
1513328449.51,60959,3.94,71640.3,-4.27,-6.89,-6.73,0,*57
1513328450.74,60960,3.94,71642.5,-4.23,-6.55,-6.43,0,*5B
1513328451.96,60961,3.94,71636.5,-4.25,-6.23,-6.13,0,*58
1513328453.19,60962,3.94,71636.5,-4.25,-6.39,-6.27,0,*57
1513328454.44,60963,3.94,71638.8,-4.23,-6.19,-6.09,0,*5E
1513328455.66,60964,3.94,71632.5,-4.23,-6.09,-6.09,0,*58
1513328456.92,60965,3.94,71632.0,-4.21,-7.27,-7.27,0,*5B
1513328458.17,60966,3.94,71638.0,-4.21,-7.01,-7.01,0,*58
1513328459.45,60967,3.94,71640.8,-4.23,-6.97,-7.01,0,*55
1513328460.73,60968,3.94,71640.0,-4.23,-7.65,-7.91,0,*5F
1513328461.98,60969,3.94,71640.0,-4.23,-7.91,-8.21,0,*51
1513328463.21,60970,3.94,71644.0,-4.25,-7.87,-8.07,0,*5C
1513328464.44,60971,3.94,71644.8,-4.25,-7.95,-8.21,0,*5A
1513328465.72,60972,3.94,71642.3,-4.27,-7.73,-7.99,0,*5F
1513328467.0,60973,3.94,71636.5,-4.27,-7.69,-7.99,0,*55
1513328468.28,60974,3.94,71634.5,-4.27,-7.43,-7.69,0,*55
1513328469.56,60975,3.94,71632.8,-4.27,-7.43,-7.73,0,*5F
1513328470.81,60976,3.94,71638.0,-4.27,-7.53,-7.95,0,*55
1513328472.06,60977,3.94,71640.0,-4.27,-7.69,-8.21,0,*5D
1513328473.34,60978,3.94,71648.3,-4.27,-7.57,-7.99,0,*53
1513328474.57,60979,3.94,71648.0,-4.29,-7.91,-8.41,0,*5C
1513328475.78,60980,3.94,71646.8,-4.33,-8.03,-8.55,0,*50
1513328477.01,60981,3.94,71636.5,-4.33,-8.17,-8.51,0,*50
1513328478.23,60982,3.94,71630.0,-4.33,-8.03,-8.41,0,*57
1513328479.46,60983,3.94,71640.3,-4.33,-7.91,-8.29,0,*5C
1513328480.66,60984,3.94,71624.5,-4.33,-8.67,-8.93,0,*5C
1513328481.88,60985,3.94,71624.5,-4.37,-9.01,-9.15,0,*57
1513328483.09,60986,3.94,71624.0,-4.37,-8.97,-9.15,0,*5A
1513328484.28,60987,3.94,71648.3,-4.37,-8.97,-8.97,0,*50
1513328485.48,60988,3.94,71644.3,-4.41,-9.01,-9.05,0,*5A
1513328486.68,60989,3.94,71628.5,-4.41,-9.01,-9.05,0,*5B
1513328487.88,60990,3.94,71584.0,-4.41,-9.05,-9.27,0,*57
1513328489.11,60991,3.94,71572.0,-4.45,-9.15,-9.23,0,*57
1513328490.31,60992,3.94,71600.5,-4.45,-8.85,-8.89,0,*5D
1513328491.5,60993,3.94,71614.8,-4.45,-8.33,-8.41,0,*55
1513328492.74,60994,3.94,71616.3,-4.49,-7.99,-8.11,0,*54
1513328493.99,60995,3.94,71618.3,-4.49,-8.07,-8.07,0,*5A
1513328495.21,60996,3.94,71618.8,-4.49,-8.11,-8.21,0,*5A
1513328496.44,60997,3.94,71628.8,-4.49,-7.91,-7.69,0,*5F
1513328497.7,60998,3.94,71632.8,-4.47,-8.03,-7.95,0,*59
1513328498.97,60999,3.94,71638.5,-4.47,-7.65,-7.57,0,*59
1513328500.21,61000,3.94,71638.5,-4.49,-7.69,-7.43,0,*56
1513328501.45,61001,3.94,71642.5,-4.47,-7.53,-7.39,0,*5D
1513328502.66,61002,3.94,71634.8,-4.47,-7.49,-7.23,0,*5E
1513328503.87,61003,3.94,71636.3,-4.49,-7.39,-7.19,0,*5F
1513328505.12,61004,3.94,71634.3,-4.47,-7.11,-6.97,0,*5B
1513328506.34,61005,3.94,71636.3,-4.45,-7.35,-7.15,0,*55
1513328507.54,61006,3.94,71634.8,-4.45,-7.15,-7.11,0,*50
1513328508.76,61007,3.94,71632.0,-4.45,-7.15,-7.01,0,*50
1513328510.0,61008,3.94,71634.3,-4.45,-7.01,-6.93,0,*50
1513328511.24,61009,3.94,71634.8,-4.45,-7.01,-6.97,0,*55
1513328512.48,61010,3.94,71632.5,-4.43,-6.63,-6.51,0,*54
1513328513.69,61011,3.94,71632.5,-4.43,-6.69,-6.69,0,*54
1513328514.89,61012,3.94,71638.3,-4.45,-7.11,-7.11,0,*51
1513328516.12,61013,3.94,71634.8,-4.43,-7.19,-7.11,0,*5E
1513328517.36,61014,3.94,71632.3,-4.43,-7.43,-7.49,0,*5B
1513328518.6,61015,3.94,71628.5,-4.45,-7.31,-7.35,0,*52
1513328519.81,61016,3.94,71626.3,-4.43,-7.49,-7.49,0,*53
1513328521.09,61017,3.94,71622.0,-4.43,-7.61,-7.61,0,*52
1513328522.36,61018,3.94,71620.3,-4.43,-7.57,-7.57,0,*5D
1513328523.61,61019,3.94,71618.0,-4.45,-7.73,-7.65,0,*5D
1513328524.83,61020,3.94,71626.3,-4.45,-7.61,-7.53,0,*51
1513328526.04,61021,3.94,71638.8,-4.45,-7.61,-7.53,0,*50
1513328527.26,61022,3.94,71636.3,-4.45,-7.61,-7.49,0,*58
1513328528.5,61023,3.94,71620.0,-4.43,-7.61,-7.49,0,*5F
1513328529.74,61024,3.94,71600.3,-4.43,-7.91,-7.87,0,*55
1513328530.96,61025,3.94,71616.5,-4.45,-7.61,-7.53,0,*54
1513328532.23,61026,3.94,71636.3,-4.43,-7.61,-7.57,0,*55
1513328533.46,61027,3.94,71632.5,-4.45,-8.17,-8.07,0,*56
1513328534.72,61028,3.94,71614.3,-4.43,-7.99,-7.91,0,*56
1513328535.97,61029,3.94,71616.3,-4.45,-7.77,-7.73,0,*5D
1513328537.21,61030,3.94,71634.5,-4.45,-7.27,-7.35,0,*52
1513328538.41,61031,3.94,71636.3,-4.45,-7.23,-7.23,0,*50
1513328539.68,61032,3.94,71642.8,-4.43,-7.31,-7.43,0,*50
1513328540.9,61033,3.94,71642.0,-4.45,-7.15,-7.35,0,*50
1513328542.14,61034,3.94,71648.8,-4.45,-7.01,-7.27,0,*51
1513328543.39,61035,3.94,71654.8,-4.43,-6.97,-7.49,0,*50
1513328544.61,61036,3.94,71654.8,-4.43,-7.11,-7.87,0,*5E
1513328545.84,61037,3.94,71658.3,-4.43,-7.61,-8.67,0,*59
1513328547.07,61038,3.94,71652.5,-4.43,-8.37,-9.67,0,*5B
1513328548.3,61039,3.94,71658.0,-4.43,-8.67,-10.15,0,*62
1513328549.49,61040,3.94,71656.3,-4.45,-9.75,-11.11,0,*6D
1513328550.7,61041,3.94,71654.5,-4.45,-9.23,-10.35,0,*68
1513328551.93,61042,3.94,71646.3,-4.45,-8.89,-9.53,0,*52
1513328553.13,61043,3.94,71632.0,-4.45,-8.67,-8.89,0,*55
1513328554.32,61044,3.94,71626.8,-4.45,-8.41,-8.45,0,*56
1513328555.56,61045,3.94,71622.0,-4.45,-8.03,-7.61,0,*58
1513328556.78,61046,3.94,71614.8,-4.43,-7.19,-6.89,0,*5E
1513328558.03,61047,3.94,71610.8,-4.43,-6.93,-6.69,0,*52
1513328559.22,61048,3.94,71612.8,-4.45,-6.85,-6.43,0,*54
1513328560.44,61049,3.94,71610.3,-4.43,-6.69,-6.31,0,*54
1513328561.63,61050,3.94,71614.8,-4.41,-6.77,-6.47,0,*50
1513328562.83,61051,3.94,71620.0,-4.41,-6.85,-6.59,0,*53
1513328564.03,61052,3.94,71622.3,-4.41,-6.77,-6.51,0,*55
1513328565.27,61053,3.94,71626.3,-4.39,-7.01,-6.85,0,*52
1513328566.53,61054,3.94,71632.0,-4.39,-7.05,-6.93,0,*56
1513328567.75,61055,3.94,71634.3,-4.37,-6.97,-6.85,0,*54
1513328568.97,61056,3.94,71638.3,-4.37,-7.11,-6.97,0,*5B
1513328570.18,61057,3.94,71640.5,-4.37,-7.27,-7.11,0,*50
1513328571.43,61058,3.94,71646.5,-4.39,-6.93,-6.89,0,*5F
1513328572.64,61059,3.94,71646.5,-4.37,-6.97,-6.89,0,*54
1513328573.84,61060,3.94,71648.3,-4.37,-7.23,-7.23,0,*51
1513328575.12,61061,3.94,71650.0,-4.35,-6.97,-6.97,0,*52
1513328576.36,61062,3.94,71648.5,-4.37,-6.97,-7.01,0,*5D
1513328577.55,61063,3.94,71652.5,-4.37,-6.81,-6.89,0,*5A
1513328578.81,61064,3.94,71652.3,-4.35,-7.01,-7.23,0,*57
1513328580.07,61065,3.94,71648.5,-4.35,-6.97,-7.11,0,*59
1513328581.34,61066,3.94,71644.8,-4.35,-7.61,-7.91,0,*5A
1513328582.56,61067,3.94,71642.0,-4.37,-7.95,-8.21,0,*56
1513328583.77,61068,3.94,71640.0,-4.37,-7.91,-8.17,0,*58
1513328585.01,61069,3.94,71646.0,-4.37,-7.35,-7.27,0,*5B
1513328586.19,61070,3.94,71644.8,-4.37,-7.49,-7.53,0,*5B
1513328587.46,61071,3.94,71638.8,-4.39,-7.65,-7.69,0,*53
1513328588.72,61072,3.94,71638.0,-4.39,-7.99,-8.11,0,*53
1513328589.99,61073,3.94,71642.8,-4.39,-7.57,-7.57,0,*5D
1513328591.26,61074,4.0,71642.8,-4.39,-7.65,-7.57,0,*5B
1513328592.52,61075,3.94,71642.0,-4.39,-7.05,-7.01,0,*5F
1513328593.76,61076,3.94,71642.0,-4.39,-7.31,-7.19,0,*52
1513328594.99,61077,3.94,71636.8,-4.39,-7.31,-7.15,0,*5F
1513328596.23,61078,3.94,71638.5,-4.39,-6.93,-6.85,0,*51
1513328597.45,61079,3.94,71644.5,-4.39,-6.77,-6.47,0,*54
1513328598.67,61080,3.94,71642.3,-4.37,-6.47,-6.19,0,*54
1513328599.89,61081,3.94,71642.3,-4.35,-6.31,-6.09,0,*57
1513328601.12,61082,4.0,71646.3,-4.33,-6.27,-6.01,0,*5D
1513328602.32,61083,4.0,71644.3,-4.33,-6.31,-6.13,0,*58
1513328603.52,61084,3.94,71642.8,-4.29,-6.13,-6.01,0,*57
1513328604.76,61085,3.94,71646.0,-4.29,-6.05,-5.89,0,*52
1513328606.02,61086,3.94,71644.5,-4.27,-6.09,-5.85,0,*5F
1513328607.26,61087,3.94,71640.0,-4.25,-5.93,-5.55,0,*51
1513328608.49,61088,3.94,71642.5,-4.25,-5.69,-5.35,0,*5D
1513328609.73,61089,3.94,71662.0,-4.25,-5.55,-5.19,0,*5D
1513328610.96,61090,3.94,71662.0,-4.21,-5.51,-5.19,0,*55
1513328612.2,61091,3.94,71660.0,-4.17,-5.81,-5.43,0,*53
1513328613.42,61092,3.94,71658.5,-4.17,-5.73,-5.35,0,*5C
1513328614.69,61093,3.94,71660.8,-4.17,-5.85,-5.61,0,*55
1513328615.92,61094,3.94,71660.3,-4.15,-6.35,-5.97,0,*51
1513328617.12,61095,3.94,71662.5,-4.13,-6.43,-6.09,0,*53
1513328618.35,61096,3.94,71662.5,-4.13,-6.43,-6.23,0,*58
1513328619.58,61097,3.94,71658.8,-4.13,-6.19,-5.97,0,*5A
1513328620.81,61098,3.94,71660.3,-4.11,-6.09,-6.05,0,*5E
1513328622.03,61099,4.0,71664.3,-4.11,-6.47,-6.43,0,*57
1513328623.24,61100,3.94,71662.8,-4.09,-6.55,-6.55,0,*5B
1513328624.43,61101,4.0,71660.5,-4.09,-6.89,-6.77,0,*5B
1513328625.66,61102,3.94,71660.0,-4.09,-7.01,-6.89,0,*58
1513328626.88,61103,3.94,71664.5,-4.09,-6.63,-6.55,0,*5D
1513328628.11,61104,4.0,71666.3,-4.09,-6.77,-6.63,0,*5A
1513328629.36,61105,4.0,71664.0,-4.09,-7.57,-7.57,0,*5E
1513328630.61,61106,3.94,71662.5,-4.11,-7.23,-7.01,0,*54
1513328631.82,61107,4.0,71660.0,-4.09,-7.11,-6.89,0,*5C
1513328633.04,61108,3.94,71652.8,-4.09,-7.49,-7.27,0,*5B
1513328634.29,61109,3.94,71646.8,-4.11,-7.01,-6.85,0,*56
1513328635.54,61110,4.0,71644.0,-4.11,-7.15,-7.01,0,*56
1513328636.79,61111,3.94,71646.8,-4.11,-7.15,-6.97,0,*59
1513328638.02,61112,4.0,71654.8,-4.11,-7.23,-7.15,0,*54
1513328639.25,61113,3.94,71650.5,-4.11,-7.23,-7.23,0,*50
1513328640.53,61114,4.0,71658.3,-4.11,-7.27,-7.27,0,*57
1513328641.81,61115,4.0,71662.3,-4.11,-7.57,-7.65,0,*57
1513328643.09,61116,4.0,71664.3,-4.15,-7.73,-7.95,0,*59
1513328644.37,61117,4.0,71668.5,-4.15,-7.69,-7.73,0,*5B
1513328645.65,61118,3.94,71676.5,-4.15,-7.31,-7.73,0,*59
1513328646.9,61119,4.0,71682.0,-4.15,-8.07,-8.33,0,*59
1513328648.1,61120,3.94,71664.8,-4.17,-8.63,-8.63,0,*56
1513328649.33,61121,4.0,71668.3,-4.19,-8.25,-8.17,0,*58
1513328650.61,61122,3.94,71666.5,-4.19,-7.99,-7.91,0,*52
1513328651.89,61123,3.94,71664.8,-4.19,-8.11,-8.11,0,*5B
1513328653.14,61124,4.0,71676.5,-4.19,-8.21,-8.03,0,*5C
1513328654.39,61125,4.0,71678.8,-4.21,-7.91,-7.77,0,*5E
1513328655.62,61126,4.0,71680.5,-4.23,-7.53,-7.49,0,*5C
1513328656.87,61127,4.0,71676.3,-4.23,-7.65,-7.49,0,*58
1513328658.09,61128,4.0,71672.3,-4.23,-7.53,-7.53,0,*59
1513328659.34,61129,4.0,71672.8,-4.25,-7.95,-7.95,0,*5E
1513328660.61,61130,4.0,71678.5,-4.23,-8.03,-7.95,0,*50
1513328661.83,61131,4.0,71674.5,-4.27,-8.25,-8.33,0,*52
1513328663.09,61132,4.0,71672.3,-4.27,-8.11,-8.21,0,*55
1513328664.32,61133,4.0,71674.5,-4.27,-8.21,-8.21,0,*57
1513328665.6,61134,4.0,71676.8,-4.27,-7.73,-7.69,0,*5B
1513328666.82,61135,4.0,71672.8,-4.25,-7.53,-7.27,0,*50
1513328668.06,61136,4.0,71670.3,-4.29,-7.19,-6.93,0,*5F
1513328669.32,61137,3.94,71662.3,-4.29,-7.35,-7.31,0,*59
1513328670.57,61138,3.94,71660.5,-4.27,-7.31,-7.19,0,*56
1513328671.82,61139,4.0,71658.8,-4.27,-7.27,-7.19,0,*50
1513328673.08,61140,4.0,71652.3,-4.27,-7.19,-7.05,0,*5E
1513328674.33,61141,4.0,71652.5,-4.27,-7.01,-6.89,0,*53
1513328675.56,61142,3.94,71646.8,-4.27,-6.89,-6.73,0,*54
1513328676.79,61143,4.0,71650.5,-4.25,-6.77,-6.63,0,*57
1513328678.02,61144,4.0,71644.8,-4.25,-6.73,-6.63,0,*54
1513328679.22,61145,4.0,71644.8,-4.25,-6.47,-6.39,0,*5D
1513328680.46,61146,4.0,71646.3,-4.25,-6.63,-6.63,0,*57
1513328681.7,61147,4.0,71646.8,-4.25,-6.77,-6.63,0,*53
1513328682.92,61148,4.0,71652.8,-4.25,-6.73,-6.63,0,*58
1513328684.13,61149,4.0,71652.3,-4.21,-6.77,-6.69,0,*53
1513328685.35,61150,4.0,71650.0,-4.23,-6.69,-6.59,0,*55
1513328686.58,61151,4.0,71650.3,-4.23,-6.77,-6.69,0,*58
1513328687.8,61152,4.0,71652.5,-4.23,-6.69,-6.69,0,*54
1513328689.02,61153,4.0,71654.0,-4.23,-6.85,-6.69,0,*57
1513328690.23,61154,4.0,71652.8,-4.21,-6.59,-6.47,0,*5F
1513328691.46,61155,4.0,71652.5,-4.21,-6.97,-6.85,0,*52
1513328692.66,61156,4.0,71652.8,-4.21,-6.69,-6.69,0,*52
1513328693.87,61157,4.0,71654.3,-4.21,-6.73,-6.59,0,*5B
1513328695.07,61158,4.0,71648.8,-4.21,-6.69,-6.59,0,*5F
1513328696.27,61159,4.0,71648.5,-4.21,-6.69,-6.69,0,*5D
1513328697.5,61160,4.0,71650.5,-4.21,-7.01,-6.89,0,*56
1513328698.7,61161,4.0,71650.3,-4.21,-6.89,-6.85,0,*5A
1513328699.93,61162,4.0,71650.0,-4.23,-6.85,-6.77,0,*5A
1513328701.2,61163,4.0,71640.8,-4.19,-6.63,-6.63,0,*5F
1513328702.43,61164,4.0,71642.5,-4.19,-6.73,-6.73,0,*58
1513328703.66,61165,4.0,71634.3,-4.19,-6.43,-6.39,0,*54
1513328704.87,61166,3.94,71628.0,-4.17,-6.51,-6.35,0,*56
1513328706.1,61167,4.0,71632.0,-4.19,-6.89,-6.73,0,*5E
1513328707.33,61168,4.0,71632.0,-4.17,-7.27,-7.19,0,*57
1513328708.59,61169,4.0,71634.3,-4.19,-7.57,-7.49,0,*5A
1513328709.84,61170,4.0,71638.3,-4.17,-7.61,-7.69,0,*5B
1513328711.1,61171,4.0,71636.8,-4.19,-7.49,-7.43,0,*56
1513328712.36,61172,4.0,71636.8,-4.19,-7.35,-7.23,0,*58
1513328713.61,61173,4.0,71640.8,-4.21,-7.35,-7.27,0,*56
1513328714.85,61174,4.0,71644.8,-4.21,-7.27,-7.23,0,*56
1513328716.05,61175,4.0,71646.8,-4.21,-6.89,-6.89,0,*53
1513328717.26,61176,4.0,71642.5,-4.21,-6.89,-6.89,0,*50
1513328718.46,61177,4.0,71644.5,-4.21,-6.85,-6.73,0,*58
1513328719.72,61178,4.0,71642.0,-4.21,-7.27,-7.27,0,*5E
1513328720.95,61179,4.0,71634.8,-4.21,-7.35,-7.49,0,*54
1513328722.2,61180,4.0,71634.3,-4.23,-7.35,-7.23,0,*5C
1513328723.43,61181,4.0,71630.8,-4.21,-7.27,-7.15,0,*59
1513328724.68,61182,4.0,71640.5,-4.21,-7.69,-7.69,0,*5B
1513328725.9,61183,4.0,71632.5,-4.23,-8.21,-8.33,0,*5B
1513328727.13,61184,4.0,71634.0,-4.23,-8.21,-8.29,0,*57
1513328728.33,61185,4.0,71634.0,-4.25,-7.83,-7.83,0,*58
1513328729.58,61186,4.0,71634.3,-4.27,-7.87,-7.99,0,*56
1513328730.87,61187,4.0,71636.5,-4.27,-7.99,-8.07,0,*50
1513328732.09,61188,4.0,71638.8,-4.27,-8.21,-8.25,0,*53
1513328733.3,61189,4.0,71640.8,-4.29,-8.25,-8.37,0,*5B
1513328734.55,61190,4.0,71638.3,-4.33,-8.03,-8.11,0,*58
1513328735.8,61191,4.0,71646.5,-4.33,-8.03,-8.11,0,*59
1513328737.03,61192,4.0,71644.0,-4.33,-8.81,-8.97,0,*5E
1513328738.22,61193,4.0,71642.8,-4.37,-8.75,-8.85,0,*53
1513328739.41,61194,4.0,71634.5,-4.37,-8.55,-8.63,0,*5E
1513328740.68,61195,4.0,71628.3,-4.39,-9.15,-9.15,0,*54
1513328741.9,61196,4.0,71634.8,-4.39,-8.89,-8.89,0,*57
1513328743.11,61197,4.0,71652.8,-4.41,-8.75,-8.81,0,*52
1513328744.31,61198,4.0,71666.0,-4.41,-9.05,-9.19,0,*5B
1513328745.53,61199,4.0,71658.8,-4.41,-9.61,-9.75,0,*52
1513328746.78,61200,4.0,71636.5,-4.45,-10.79,-10.75,0,*5C
1513328747.99,61201,4.0,71602.8,-4.45,-10.93,-10.89,0,*5A
1513328749.24,61202,4.0,71596.3,-4.47,-10.63,-11.15,0,*50
1513328750.5,61203,4.0,71600.5,-4.49,-10.67,-11.89,0,*5E
1513328751.73,61204,4.0,71596.0,-4.55,-10.57,-12.25,0,*52
1513328752.95,61205,4.0,71608.5,-4.55,-11.11,-13.07,0,*51
1513328754.2,61206,4.0,71618.5,-4.59,-12.25,-15.21,0,*58
1513328755.48,61207,4.0,71642.0,-4.59,-13.61,-16.51,0,*5C
1513328756.73,61208,4.0,71634.3,-4.63,-15.81,-19.37,0,*5D
1513328757.97,61209,4.0,71638.8,-4.63,-18.01,-18.17,0,*5A
1513328759.17,61210,4.0,71646.3,-4.65,-17.31,-16.93,0,*5A
1513328760.38,61211,4.0,71636.0,-4.65,-15.75,-15.53,0,*56
1513328761.66,61212,4.0,71646.3,-4.67,-15.43,-16.31,0,*55
1513328762.89,61213,4.0,71658.3,-4.71,-15.49,-17.41,0,*5F
1513328764.12,61214,4.0,71664.5,-4.71,-15.85,-18.07,0,*55
1513328765.36,61215,4.0,71662.8,-4.77,-15.53,-18.11,0,*5E
1513328766.6,61216,4.0,71640.5,-4.77,-14.65,-18.59,0,*55
1513328767.85,61217,4.0,71616.8,-4.77,-15.21,-19.03,0,*5B
1513328769.11,61218,4.0,71616.3,-4.81,-16.13,-20.69,0,*59
1513328770.36,61219,4.0,71612.3,-4.81,-16.23,-22.07,0,*51
1513328771.62,61220,4.0,71602.5,-4.85,-17.49,-23.85,0,*59
1513328772.88,61221,4.0,71600.0,-4.87,-18.59,-25.75,0,*5D
1513328774.18,61222,4.0,71612.5,-4.89,-18.93,-25.55,0,*54
1513328775.4,61223,4.0,71606.3,-4.91,-20.15,-27.93,0,*51
1513328776.66,61224,4.0,71564.3,-4.93,-21.13,-30.01,0,*5E
1513328777.9,61225,4.0,71574.0,-4.93,-21.93,-31.05,0,*52
1513328779.16,61226,4.0,71606.3,-4.97,-21.33,-30.45,0,*5A
1513328780.43,61227,4.0,71610.3,-4.97,-20.35,-30.05,0,*58
1513328781.67,61228,4.0,71622.0,-5.03,-19.17,-28.97,0,*53
1513328782.89,61229,4.0,71622.3,-5.03,-18.73,-28.37,0,*5B
1513328784.13,61230,4.0,71636.8,-5.05,-18.79,-28.59,0,*57
1513328785.39,61231,4.0,71642.8,-5.07,-18.79,-27.99,0,*57
1513328786.63,61232,4.0,71612.0,-5.09,-18.35,-26.45,0,*52
1513328787.85,61233,4.0,71600.5,-5.09,-17.79,-24.05,0,*52
1513328789.09,61234,4.0,71642.8,-5.11,-16.59,-20.39,0,*54
1513328790.33,61235,4.0,71640.0,-5.13,-14.29,-16.23,0,*5C
1513328791.53,61236,4.0,71628.5,-5.13,-12.21,-13.93,0,*5F
1513328792.77,61237,4.0,71618.5,-5.17,-12.21,-13.61,0,*57
1513328794.03,61238,4.0,71616.0,-5.17,-11.67,-11.81,0,*55
1513328795.29,61239,4.0,71602.0,-5.17,-10.79,-10.79,0,*5C
1513328796.5,61240,4.0,71596.3,-5.17,-10.31,-10.23,0,*51
1513328797.73,61241,4.0,71596.8,-5.19,-10.27,-10.15,0,*5C
1513328798.97,61242,4.0,71612.5,-5.19,-10.05,-10.01,0,*5A
1513328800.19,61243,4.0,71626.0,-5.19,-9.79,-9.67,0,*50
1513328801.41,61244,4.0,71622.5,-5.21,-9.45,-9.23,0,*53
1513328802.64,61245,4.0,71628.3,-5.21,-9.19,-9.11,0,*5A
1513328803.87,61246,4.0,71636.3,-5.21,-9.31,-9.11,0,*53
1513328805.12,61247,4.0,71618.3,-5.21,-9.37,-9.11,0,*54
1513328806.32,61248,4.0,71590.3,-5.21,-9.31,-8.97,0,*52
1513328807.52,61249,4.0,71564.5,-5.21,-8.93,-8.41,0,*51
1513328808.75,61250,4.0,71574.8,-5.21,-8.81,-8.41,0,*5A
1513328809.94,61251,4.0,71538.0,-5.21,-8.93,-8.55,0,*5D
1513328811.14,61252,4.0,71508.3,-5.21,-9.31,-9.05,0,*53
1513328812.37,61253,4.0,71512.8,-5.25,-9.27,-9.15,0,*50
1513328813.64,61254,4.0,71504.0,-5.27,-9.37,-9.15,0,*54
1513328814.88,61255,4.0,71518.8,-5.25,-9.11,-8.85,0,*5B
1513328816.07,61256,4.0,71540.5,-5.25,-8.97,-8.75,0,*58
1513328817.29,61257,4.0,71572.5,-5.27,-8.97,-8.75,0,*5B
1513328818.51,61258,4.0,71570.8,-5.27,-8.45,-8.33,0,*59
1513328819.72,61259,4.0,71578.3,-5.29,-8.45,-8.37,0,*52
1513328820.97,61260,4.0,71580.5,-5.29,-8.07,-7.95,0,*59
1513328822.25,61261,4.0,71600.5,-5.27,-8.07,-8.07,0,*52
1513328823.47,61262,4.0,71602.5,-5.27,-8.17,-8.17,0,*51
1513328824.7,61263,4.0,71588.8,-5.27,-7.83,-7.83,0,*50
1513328825.95,61264,4.0,71598.0,-5.25,-7.91,-7.91,0,*55
1513328827.2,61265,4.0,71610.8,-5.25,-8.03,-8.07,0,*50
1513328828.42,61266,4.0,71636.8,-5.25,-8.07,-8.17,0,*56
1513328829.65,61267,4.0,71630.5,-5.27,-8.17,-8.41,0,*57
1513328830.84,61268,4.0,71640.8,-5.25,-8.33,-8.85,0,*54
1513328832.08,61269,4.0,71592.8,-5.27,-8.85,-10.23,0,*6F
1513328833.33,61270,4.0,71568.8,-5.27,-9.57,-12.03,0,*69
1513328834.54,61271,4.0,71594.0,-5.25,-10.35,-16.03,0,*52
1513328835.8,61272,4.0,71598.8,-5.27,-11.59,-18.45,0,*54
1513328837.04,61273,4.0,71608.0,-5.31,-12.39,-20.05,0,*58
1513328838.26,61274,4.0,71632.5,-5.29,-13.19,-21.39,0,*5B
1513328839.49,61275,4.0,71628.3,-5.31,-14.33,-22.53,0,*53
1513328840.78,61276,4.0,71642.3,-5.31,-15.21,-22.77,0,*54
1513328842.05,61277,4.0,71644.5,-5.31,-16.65,-23.43,0,*50
1513328843.32,61278,4.0,71646.8,-5.33,-17.63,-23.49,0,*50
1513328844.55,61279,4.0,71646.3,-5.35,-18.21,-21.97,0,*5F
1513328845.78,61280,4.0,71640.8,-5.35,-17.45,-19.03,0,*52
1513328847.01,61281,4.0,71648.8,-5.39,-16.75,-17.25,0,*57
1513328848.24,61282,4.0,71642.3,-5.39,-15.75,-15.35,0,*54
1513328849.45,61283,4.0,71634.0,-5.39,-14.33,-13.43,0,*51
1513328850.7,61284,4.0,71640.0,-5.41,-12.65,-11.23,0,*58
1513328851.93,61285,4.0,71624.8,-5.39,-11.07,-9.97,0,*67
1513328853.19,61286,4.0,71638.3,-5.41,-10.41,-9.75,0,*64
1513328854.46,61287,4.0,71620.8,-5.41,-9.45,-9.15,0,*5F
1513328855.72,61288,4.06,71632.0,-5.41,-9.15,-9.01,0,*50
1513328856.97,61289,4.0,71624.3,-5.41,-9.19,-9.15,0,*58
1513328858.22,61290,4.0,71630.0,-5.41,-9.19,-9.15,0,*50
1513328859.45,61291,4.0,71630.0,-5.41,-9.19,-9.01,0,*54
1513328860.68,61292,4.0,71620.3,-5.41,-8.89,-8.75,0,*5D
1513328861.91,61293,4.0,71612.5,-5.41,-8.89,-8.89,0,*5F
1513328863.12,61294,4.0,71610.5,-5.43,-8.89,-9.01,0,*5B
1513328864.33,61295,4.0,71602.5,-5.43,-8.89,-8.93,0,*50
1513328865.55,61296,4.0,71612.5,-5.43,-9.05,-9.11,0,*5D
1513328866.75,61297,4.0,71620.3,-5.43,-8.63,-8.75,0,*5E
1513328867.99,61298,4.0,71636.5,-5.45,-8.67,-8.81,0,*58
1513328869.2,61299,4.0,71642.5,-5.43,-8.63,-8.89,0,*53
1513328870.39,61300,4.0,71644.3,-5.43,-8.75,-8.93,0,*5E
1513328871.61,61301,4.0,71646.3,-5.45,-8.55,-8.67,0,*50
1513328872.81,61302,4.0,71650.8,-5.43,-8.59,-8.71,0,*5E
1513328874.05,61303,4.0,71656.3,-5.45,-8.03,-8.41,0,*55
1513328875.27,61304,4.0,71662.3,-5.43,-7.95,-8.45,0,*50
1513328876.49,61305,4.0,71664.0,-5.41,-8.25,-8.75,0,*54
1513328877.75,61306,4.0,71594.0,-5.41,-9.01,-9.53,0,*55
1513328878.98,61307,4.0,71592.5,-5.43,-9.31,-9.83,0,*58
1513328880.18,61308,4.0,71604.8,-5.43,-9.31,-9.71,0,*5A
1513328881.38,61309,4.0,71596.5,-5.43,-9.31,-9.71,0,*5B
1513328882.6,61310,4.0,71588.5,-5.43,-9.53,-9.67,0,*50
1513328883.85,61311,4.0,71580.5,-5.43,-9.53,-9.83,0,*5B
1513328885.06,61312,4.0,71574.5,-5.43,-9.53,-9.89,0,*52
1513328886.29,61313,4.0,71568.0,-5.43,-9.53,-10.09,0,*63
1513328887.5,61314,4.06,71578.0,-5.43,-9.19,-10.01,0,*62
1513328888.71,61315,4.0,71584.5,-5.43,-9.31,-10.27,0,*6D
1513328889.96,61316,4.0,71610.5,-5.45,-9.45,-10.85,0,*63
1513328891.21,61317,4.0,71624.3,-5.45,-9.45,-10.85,0,*62
1513328892.44,61318,4.0,71620.3,-5.43,-9.97,-11.07,0,*6F
1513328893.65,61319,4.06,71634.5,-5.43,-10.01,-10.35,0,*59
1513328894.92,61320,4.0,71622.8,-5.45,-9.61,-9.57,0,*57
1513328896.19,61321,4.0,71616.3,-5.45,-9.57,-9.45,0,*50
1513328897.43,61322,4.0,71616.8,-5.45,-8.81,-8.75,0,*5B
1513328898.68,61323,4.0,71632.0,-5.45,-8.93,-8.81,0,*52
1513328899.91,61324,4.0,71626.0,-5.45,-8.89,-8.75,0,*55
1513328901.13,61325,4.0,71624.0,-5.45,-8.63,-8.63,0,*57
1513328902.36,61326,4.0,71606.3,-5.45,-8.29,-8.37,0,*5B
1513328903.63,61327,4.0,71602.0,-5.45,-8.03,-8.11,0,*56
1513328904.88,61328,4.0,71604.3,-5.45,-8.11,-8.25,0,*5D
1513328906.12,61329,4.0,71608.3,-5.45,-8.03,-8.29,0,*53
1513328907.37,61330,4.0,71612.0,-5.45,-8.51,-8.67,0,*56
1513328908.62,61331,4.0,71612.3,-5.45,-8.11,-8.37,0,*56
1513328909.87,61332,4.0,71602.3,-5.45,-7.99,-8.41,0,*5B
1513328911.1,61333,4.0,71614.3,-5.45,-8.17,-8.93,0,*5C
1513328912.29,61334,4.0,71610.3,-5.43,-8.59,-9.75,0,*5E
1513328913.56,61335,4.0,71626.3,-5.45,-9.11,-10.45,0,*6F
1513328914.77,61336,4.06,71628.8,-5.43,-9.31,-10.97,0,*67
1513328916.0,61337,4.0,71620.5,-5.43,-10.01,-11.93,0,*58
1513328917.23,61338,4.0,71606.3,-5.43,-10.71,-13.07,0,*5F
1513328918.51,61339,4.06,71606.0,-5.45,-11.67,-13.79,0,*57
1513328919.74,61340,4.0,71610.5,-5.45,-12.39,-13.93,0,*55
1513328921.0,61341,4.0,71618.0,-5.45,-12.65,-13.51,0,*53